GFSSE_sfc_wetblb_057.txt.gz
Wetbulb
73.71 75.44 77.74 78.19 78.57 78.60 78.27 78.02 77.76 77.59 76.96 76.93 77.18 77.21 76.85 76.93 77.05 77.25 77.33 76.95 76.83 76.08 75.30 74.81 74.38 73.65 72.92 72.35 72.63 73.85 74.18 74.37 74.38 74.57 74.53 74.25 74.18 73.87 72.91 71.74 72.72 73.25 73.82
75.03 75.07 77.23 77.71 78.18 78.59 78.27 77.94 77.56 77.38 76.88 77.01 77.18 77.00 76.83 77.00 77.18 77.25 76.85 76.58 76.20 75.05 74.13 73.11 72.14 71.11 70.35 69.90 69.97 71.21 72.65 73.61 73.95 74.05 74.22 74.17 73.75 73.24 73.10 72.58 73.42 73.55 72.99
75.44 75.52 76.95 77.43 78.08 78.49 78.32 77.97 77.61 77.36 76.91 76.96 77.11 76.83 76.95 77.02 77.25 77.05 76.62 76.33 75.56 74.33 73.26 71.82 70.78 69.74 68.63 68.00 67.65 68.27 69.29 70.31 71.45 72.52 73.88 73.60 70.84 73.34 72.54 72.40 72.45 72.89 72.53
76.04 76.16 75.86 77.18 77.81 78.24 78.06 77.76 77.35 77.35 77.00 76.93 76.93 76.90 77.10 77.12 77.12 76.67 76.32 75.72 74.84 73.78 72.39 70.95 69.69 69.08 68.17 67.22 66.62 66.53 66.89 67.08 68.38 70.15 71.59 70.73 70.32 72.85 72.65 72.45 72.07 72.05 72.10
76.19 76.16 76.12 76.98 77.50 77.96 78.01 77.62 77.22 77.30 77.30 77.05 77.15 77.03 77.10 77.04 76.79 76.39 76.10 75.62 74.35 73.21 71.60 70.22 69.47 69.19 68.50 67.82 67.56 67.59 67.25 67.55 69.07 69.36 71.00 71.00 71.48 71.75 72.19 72.35 72.36 72.29 71.49
74.84 75.95 76.12 76.45 76.92 77.53 77.81 77.47 77.22 77.19 77.32 77.20 77.05 77.02 77.02 76.82 76.34 75.86 75.67 75.22 74.49 72.47 71.16 70.73 70.70 70.24 69.29 68.83 68.83 68.62 69.13 70.75 70.78 71.35 71.91 70.11 72.31 72.81 71.74 71.49 71.14 72.24 71.49
73.77 75.78 77.12 75.90 76.50 77.10 77.56 77.15 77.14 76.99 76.89 76.99 77.02 76.94 76.84 76.36 75.81 75.59 75.22 74.95 74.15 73.24 72.33 71.65 71.24 71.50 71.02 69.63 69.15 69.47 70.29 71.62 72.40 71.84 72.25 72.61 72.01 73.03 71.85 71.41 71.16 71.51 71.53
73.02 74.79 77.54 75.82 76.13 76.37 76.80 76.64 76.51 76.25 76.33 76.48 76.66 76.48 76.34 75.76 75.41 74.99 74.72 74.47 73.80 73.48 72.92 72.27 71.89 71.71 71.60 70.81 69.87 70.08 70.62 70.62 72.09 71.77 71.99 72.72 70.41 69.66 72.20 72.02 71.85 71.49 71.60
73.29 73.60 77.31 75.47 76.29 76.42 76.04 75.91 75.80 75.65 75.55 75.52 75.55 75.50 75.43 75.24 74.79 74.39 74.02 73.78 73.84 73.57 72.98 72.54 72.30 72.03 71.66 71.05 70.45 70.47 70.79 70.76 70.91 71.88 71.09 71.94 71.91 71.65 71.00 72.87 72.36 71.79 71.25
72.75 72.62 75.82 74.60 75.40 75.62 75.88 75.96 75.78 75.70 75.40 75.12 75.07 75.15 75.07 74.81 74.42 74.02 73.27 73.30 73.75 73.68 73.20 72.85 72.43 72.26 71.69 71.47 71.22 70.58 70.70 70.58 69.24 69.89 70.85 71.92 72.24 70.94 71.95 72.15 72.86 72.31 71.22
71.96 72.14 74.93 73.78 74.77 74.69 74.07 75.80 75.45 75.49 75.28 75.17 75.05 75.08 74.36 73.08 73.36 73.15 71.79 72.81 73.45 73.60 73.11 72.78 72.56 72.12 71.62 70.63 70.77 70.31 70.44 68.92 69.06 70.26 69.99 71.68 71.18 70.13 70.78 72.27 73.71 73.71 72.39
71.30 70.96 73.02 75.33 74.45 74.07 72.33 75.25 74.59 74.43 74.79 74.76 74.41 74.61 74.11 73.85 73.62 71.54 72.18 73.20 73.10 73.38 73.13 72.81 72.59 72.12 70.67 67.76 69.10 69.81 68.52 68.27 68.41 69.53 69.60 72.49 70.79 70.15 70.66 71.72 73.48 74.00 73.42
71.68 71.45 71.65 75.75 77.22 75.05 72.73 74.03 73.50 73.19 73.74 74.14 74.37 75.67 75.13 73.34 74.05 72.46 72.13 71.22 71.53 72.01 69.83 70.69 70.37 69.38 68.78 68.59 67.90 70.23 70.66 69.34 69.14 69.58 72.31 72.79 71.38 70.66 71.22 71.92 73.06 74.00 73.75
69.92 71.45 71.78 74.13 75.76 76.95 73.60 72.63 73.68 71.91 73.77 73.21 73.64 76.49 76.08 73.78 75.98 75.70 72.44 72.99 74.42 71.07 71.24 70.68 70.15 72.02 70.71 70.13 69.99 69.55 69.39 69.12 68.94 68.86 71.62 72.66 71.89 71.17 71.65 72.17 72.89 73.80 73.95
67.85 70.64 71.86 73.23 75.15 76.50 77.75 73.77 74.10 73.23 73.14 73.45 73.82 75.71 74.86 73.74 76.10 75.16 75.48 72.90 73.76 72.46 71.94 72.39 71.36 72.04 71.10 70.67 70.29 69.73 69.26 69.12 69.58 69.01 69.59 72.68 71.72 71.92 71.88 72.28 72.51 73.32 74.05
67.31 69.71 71.11 72.09 76.33 76.08 76.15 78.46 76.09 75.83 74.64 74.06 74.29 75.26 76.74 75.23 76.66 73.79 74.25 72.74 72.48 72.16 71.77 72.03 72.28 71.41 70.57 70.37 70.20 70.34 70.12 69.54 69.65 71.17 69.37 70.70 71.18 70.91 71.50 71.91 72.75 73.13 73.62
66.55 68.29 72.71 73.21 75.27 77.14 77.45 76.83 76.08 74.40 74.28 73.88 74.50 77.43 76.95 77.03 76.64 75.90 72.72 72.72 73.14 74.05 77.24 74.49 73.34 71.97 70.04 69.97 70.88 70.35 70.42 72.04 70.04 71.22 70.26 70.40 70.41 70.57 70.71 71.23 72.36 72.93 73.49
63.81 67.09 71.09 71.41 73.53 75.13 75.70 75.66 74.87 74.18 74.38 73.41 74.17 74.72 75.94 76.48 76.04 75.88 72.79 73.31 74.10 73.70 72.41 72.63 71.40 69.45 69.36 69.81 71.12 70.73 71.21 71.81 71.02 72.09 71.10 71.30 70.59 70.25 70.51 70.83 71.50 72.46 72.83
63.36 64.84 70.54 73.60 72.39 74.69 74.41 74.40 74.65 75.33 73.26 73.15 73.62 73.63 75.27 75.10 75.15 74.88 73.88 73.70 75.01 72.04 71.67 72.47 71.34 71.28 70.58 70.50 70.27 71.25 72.32 71.61 72.56 71.38 72.54 73.18 72.90 71.59 71.18 70.43 70.71 71.63 72.60
62.28 65.05 67.03 70.34 72.71 74.14 73.99 73.99 72.75 72.84 72.80 71.87 71.07 71.66 73.13 74.37 74.31 74.58 73.14 73.49 72.75 71.45 70.41 71.10 71.47 72.06 71.20 71.13 70.52 71.40 73.24 72.45 72.34 72.89 72.79 72.77 72.93 72.96 73.09 73.30 71.52 71.46 71.65
62.29 64.19 64.37 65.43 72.03 72.06 72.49 70.64 71.47 70.23 71.00 71.38 71.97 73.67 73.90 74.20 74.00 73.56 72.15 72.01 71.84 71.32 72.20 73.63 72.18 72.15 71.25 72.93 70.81 70.72 71.50 74.22 73.67 72.70 73.72 72.86 73.25 73.36 72.80 71.92 72.20 71.81 70.15
60.37 63.21 63.34 65.35 66.12 71.26 70.82 71.02 71.66 70.76 70.23 69.81 71.33 70.41 72.65 73.15 73.29 72.92 71.44 70.56 71.93 70.82 74.01 73.78 73.60 71.21 71.95 73.33 70.30 69.21 65.63 69.15 72.40 73.04 72.64 72.81 74.15 73.12 71.88 72.15 72.99 73.13 74.21
60.21 60.38 61.33 64.18 66.22 67.65 70.83 72.99 73.60 75.02 75.38 72.63 71.44 71.02 71.56 71.85 72.72 72.15 72.56 69.56 70.52 72.87 72.46 73.81 74.28 74.30 70.75 72.71 74.73 69.73 64.16 62.31 67.23 72.40 73.09 71.87 73.93 72.42 73.54 72.76 72.74 71.84 73.69
59.35 59.37 60.94 62.40 65.09 66.52 69.61 68.33 70.00 70.83 69.54 71.20 72.94 72.84 71.66 73.80 73.38 73.22 71.46 72.47 73.41 74.09 74.15 75.63 75.38 74.76 74.41 71.38 72.51 72.84 72.99 71.52 65.84 64.64 70.62 71.53 71.96 72.31 73.01 71.60 71.24 72.06 72.92
58.67 59.78 61.04 62.92 63.21 66.59 67.62 68.28 68.05 68.68 69.69 68.97 66.89 70.53 74.25 74.54 71.95 72.11 72.35 74.20 76.07 75.38 76.35 76.04 77.79 76.47 74.05 72.15 70.41 71.22 71.57 70.53 71.97 68.62 65.88 67.74 70.20 70.88 71.09 72.03 71.47 71.23 71.39
58.15 58.53 59.86 61.08 64.15 64.43 65.36 67.86 69.28 69.15 69.12 68.98 69.86 69.85 70.00 71.77 72.52 74.80 73.69 75.98 76.68 77.09 77.04 77.48 77.96 77.41 75.19 74.78 72.86 72.40 69.89 68.49 68.05 68.21 66.84 68.54 67.75 70.24 70.13 71.36 70.10 70.60 72.36

GFSSE_sfc_wetblb_060.txt.gz
Wetbulb
71.81 75.83 78.10 78.50 78.66 78.13 78.03 77.80 77.44 76.89 76.88 76.93 77.01 76.89 76.88 77.06 77.11 77.21 77.19 77.01 76.79 76.68 75.86 75.34 74.56 73.77 73.01 72.79 73.37 74.26 74.95 75.09 74.91 74.15 74.27 74.48 74.22 73.76 73.59 73.75 74.42 72.75 73.77
73.11 75.78 77.64 78.07 78.43 78.10 78.00 77.70 77.47 76.79 76.68 76.91 77.01 76.63 76.80 77.00 77.16 76.96 76.66 76.64 76.26 75.41 74.34 73.53 72.55 71.64 70.81 70.70 71.10 72.23 73.29 73.86 74.30 74.27 74.10 74.16 73.73 73.48 73.20 73.43 74.15 72.70 72.94
73.32 75.96 76.96 77.69 78.20 78.08 77.72 77.37 77.21 76.66 76.60 76.88 76.73 76.70 76.80 76.98 77.08 76.73 76.43 76.16 75.70 74.61 73.14 71.95 70.89 70.06 69.17 68.76 69.01 69.67 70.09 70.92 72.20 73.90 74.82 71.18 71.08 73.14 72.67 72.90 72.88 72.92 72.66
74.15 75.78 76.14 77.63 77.84 78.15 77.69 77.21 76.93 76.66 76.65 76.73 76.70 76.65 76.95 76.95 76.93 76.58 76.21 75.96 75.19 73.70 72.24 70.86 69.81 68.83 68.67 68.19 68.37 68.08 68.03 68.85 70.55 71.53 70.15 72.46 68.96 73.22 72.69 72.50 72.41 72.18 72.53
74.81 75.28 76.78 77.56 77.64 77.92 77.92 77.51 76.93 76.48 76.65 76.65 76.63 76.65 76.87 77.00 76.67 76.15 76.11 75.76 74.81 73.06 71.73 70.39 70.34 70.32 69.56 69.01 68.72 69.10 68.80 68.99 70.36 69.05 67.71 69.33 68.10 72.03 73.18 72.64 72.79 71.99 71.79
75.07 74.40 76.41 77.22 77.48 77.74 77.94 77.55 77.13 76.90 76.68 76.68 76.68 76.68 76.82 76.79 76.23 75.89 75.83 75.48 74.78 73.21 72.08 71.59 71.14 70.70 70.12 69.66 69.43 69.35 69.62 70.73 71.80 68.15 69.03 68.81 70.11 73.01 73.20 72.70 72.68 72.88 72.65
75.15 74.68 76.00 76.87 77.24 77.58 77.74 77.60 77.47 77.27 76.74 76.75 76.75 76.85 76.87 76.54 75.96 75.79 75.63 75.28 74.57 73.38 72.51 71.83 71.52 71.42 70.97 70.40 69.54 70.08 70.85 71.51 70.39 70.63 71.26 70.91 70.48 72.57 72.93 72.57 72.04 71.92 71.83
74.16 75.15 76.24 76.71 76.86 76.97 77.38 77.12 77.11 77.00 76.85 76.86 76.79 76.89 76.81 76.18 75.76 75.54 75.23 74.93 74.10 73.40 72.95 72.23 71.84 71.85 71.64 71.08 70.54 70.65 71.11 71.30 70.07 69.70 70.80 70.84 71.63 73.13 73.48 72.97 73.06 72.58 72.09
73.22 75.28 75.75 74.98 76.68 76.92 76.58 76.45 76.45 76.26 76.28 76.31 76.08 76.14 76.02 75.78 75.14 74.92 74.58 74.18 73.76 73.41 72.85 72.48 72.24 71.87 71.68 71.30 71.15 71.28 71.58 71.47 68.99 67.74 69.89 70.64 71.53 72.34 73.05 73.96 73.35 73.18 72.65
71.70 74.59 75.81 74.11 75.12 75.91 76.05 76.28 76.15 76.10 75.92 75.59 75.74 75.67 75.32 75.14 74.72 74.40 73.45 73.36 73.74 73.66 73.06 72.87 72.50 72.10 72.03 71.66 71.46 71.58 71.51 71.13 68.72 67.22 66.72 70.74 72.64 73.75 73.43 73.06 73.97 73.45 72.84
71.30 73.35 75.20 73.00 74.14 74.41 74.78 75.78 75.74 75.94 75.75 75.63 75.34 75.38 74.11 74.16 73.29 72.94 72.48 72.73 73.56 73.51 73.17 72.92 72.52 72.25 72.05 71.83 71.76 71.80 70.92 67.85 66.75 66.72 67.52 72.74 72.84 73.64 73.40 73.69 73.75 74.03 73.33
71.14 71.10 73.05 73.10 73.28 73.25 72.99 74.92 74.76 75.12 74.94 74.82 74.66 74.66 74.23 73.25 72.87 71.03 71.79 72.92 72.87 73.51 73.31 72.89 72.67 72.42 71.85 67.28 67.89 71.26 68.43 66.97 66.13 66.37 68.15 73.04 72.88 73.09 72.44 72.66 73.46 74.26 74.16
67.34 70.82 72.77 73.18 73.76 73.14 72.04 74.56 73.44 73.57 73.57 73.94 74.04 74.29 73.67 72.63 73.06 71.09 71.27 70.01 70.99 72.40 69.59 70.98 70.20 69.64 67.55 66.89 66.00 67.51 67.21 67.12 66.53 66.55 70.48 72.34 72.28 72.68 72.04 72.39 72.73 73.59 74.03
69.28 68.23 72.85 73.70 74.29 74.58 72.85 74.08 72.72 72.44 72.74 72.74 72.97 73.82 73.59 72.77 72.35 73.04 70.89 70.13 70.16 70.03 68.47 68.14 68.03 67.94 67.47 67.77 67.83 67.71 68.46 68.37 67.65 67.40 70.68 72.69 72.30 72.80 72.89 72.74 73.18 73.59 73.93
70.20 70.16 72.03 74.11 74.52 73.76 76.76 73.15 72.90 71.57 72.26 72.50 73.20 73.71 73.82 71.89 73.18 73.59 74.35 72.77 71.97 71.45 69.75 69.20 68.26 69.90 69.28 69.18 69.19 68.53 68.27 68.27 68.28 68.21 67.67 73.14 72.32 72.50 73.01 72.94 73.12 73.56 73.91
68.50 71.07 73.02 73.44 75.17 75.31 75.80 77.06 77.51 71.86 72.69 72.47 72.85 73.14 73.46 74.22 72.26 74.15 74.02 74.08 73.05 73.04 72.11 70.49 70.67 70.82 70.64 69.61 69.39 69.59 69.10 68.98 68.86 69.04 68.08 69.69 71.67 71.50 72.30 73.31 73.68 73.50 73.48
67.59 72.78 70.34 74.28 74.54 75.04 75.65 76.87 76.18 76.41 73.96 72.29 72.61 73.98 73.46 74.24 75.29 73.45 73.01 72.35 72.70 73.10 74.11 73.95 73.18 72.95 70.95 70.29 69.06 69.31 70.20 69.76 68.58 69.04 69.39 68.41 68.95 71.10 71.16 71.95 72.87 73.69 73.91
67.29 69.03 70.17 71.23 73.71 74.45 74.53 74.46 76.01 75.56 73.88 74.87 74.03 75.59 74.54 74.13 75.08 75.59 72.91 72.13 72.43 73.36 73.01 71.92 71.47 70.32 69.48 68.20 68.11 68.89 69.37 69.13 69.48 69.81 69.69 68.87 69.01 69.07 70.13 71.16 71.43 72.00 73.44
66.95 68.67 70.26 74.07 74.50 73.19 74.73 73.84 74.71 75.46 74.96 74.68 75.75 73.60 74.97 75.13 74.03 73.67 73.06 72.10 73.82 72.71 71.69 71.89 71.82 70.72 68.91 68.56 68.82 70.00 69.94 70.14 70.94 70.46 69.54 70.07 69.46 69.40 69.13 70.81 70.56 70.84 71.90
66.75 67.68 69.31 72.00 74.03 73.95 73.41 74.07 73.30 73.52 73.52 73.14 72.99 72.46 73.60 73.44 74.01 73.50 72.86 73.32 74.34 71.62 70.34 70.78 70.77 70.59 69.30 68.94 70.02 69.05 69.93 70.92 71.63 70.75 71.30 71.59 70.84 71.11 71.16 70.52 70.06 69.27 71.05
65.37 68.08 67.32 70.58 72.84 72.42 71.56 70.79 70.19 70.46 70.70 70.27 70.53 70.72 71.73 71.90 72.80 72.97 72.60 72.31 72.47 70.60 69.72 70.64 70.45 69.30 68.67 70.69 69.46 69.42 70.03 71.29 71.38 70.70 72.10 71.57 71.00 70.86 70.86 71.94 70.96 69.50 69.73
66.34 67.14 67.69 68.48 71.50 71.47 69.86 71.91 70.30 70.52 70.87 71.37 70.53 71.02 72.23 71.63 72.09 71.93 71.74 71.00 70.60 69.10 69.19 68.98 70.30 68.50 68.95 70.19 69.39 68.63 65.60 66.92 70.08 70.74 70.79 71.01 71.09 71.23 71.13 70.64 70.26 69.31 70.58
62.70 66.08 65.42 67.99 69.18 70.00 72.81 72.52 72.13 72.13 72.58 72.16 69.49 69.47 69.23 69.99 69.57 71.55 71.53 70.25 69.76 69.39 67.93 69.30 70.52 69.99 67.40 70.60 71.18 68.50 64.53 61.13 65.89 70.10 70.05 70.62 71.16 71.66 71.30 70.50 71.32 71.06 70.69
62.41 63.29 65.01 65.88 66.16 68.15 69.72 71.01 71.60 70.51 67.63 69.71 70.84 71.11 70.18 71.01 70.59 71.65 70.69 70.38 69.27 69.98 68.91 69.37 71.36 70.65 70.00 67.74 71.24 71.49 70.94 69.89 65.11 64.32 69.64 70.15 71.16 70.51 70.95 70.38 69.95 70.66 70.76
61.17 62.31 63.83 65.21 66.06 65.16 67.85 69.15 68.17 68.82 69.25 66.82 67.49 69.48 67.85 66.58 71.85 70.79 71.09 70.35 69.45 69.88 69.45 70.74 70.71 71.85 72.34 70.97 70.56 70.70 70.48 69.65 69.40 66.93 64.07 65.70 68.60 69.52 70.84 70.98 69.83 70.59 70.41
61.24 61.58 62.89 64.44 62.85 65.01 65.84 68.07 69.18 68.24 67.93 68.29 67.82 65.37 66.08 66.18 65.46 66.93 71.55 70.34 69.74 68.87 68.82 71.11 72.25 72.84 73.17 72.77 71.68 71.19 69.32 68.18 67.10 66.90 65.22 65.40 65.76 67.32 68.70 70.22 69.77 68.20 69.08

GFSSE_sfc_wetblb_063.txt.gz
Wetbulb
73.10 76.92 78.45 78.03 77.80 77.65 77.67 77.44 77.11 77.13 76.75 76.63 76.66 76.81 76.75 76.75 76.93 77.09 76.91 76.84 76.64 76.69 75.90 74.94 73.92 73.02 72.63 72.56 73.37 74.15 74.84 75.04 74.99 74.25 74.44 74.10 73.97 73.89 74.85 74.95 74.23 72.71 73.23
74.00 76.68 78.02 77.78 77.62 77.75 77.70 77.32 77.06 76.88 76.68 76.61 76.68 76.75 76.67 76.82 76.80 76.70 76.61 76.24 76.17 75.58 74.59 73.44 72.39 71.38 70.95 70.84 71.62 72.81 73.45 74.19 74.51 74.74 74.15 73.65 73.70 73.62 73.91 73.89 73.25 72.61 72.46
74.02 76.15 77.62 77.75 77.73 77.72 77.54 77.06 76.73 76.50 76.68 76.46 76.50 76.57 76.74 76.85 76.50 76.33 76.06 75.79 75.51 74.19 72.98 71.87 71.03 69.99 69.20 68.89 69.05 69.43 70.63 71.85 73.03 74.16 73.83 71.28 71.41 73.08 73.33 73.23 73.13 72.37 72.51
74.16 75.09 76.44 77.69 77.57 77.57 77.21 76.83 76.30 76.40 76.65 76.30 76.30 76.70 76.77 76.54 76.35 76.05 75.91 75.69 74.88 73.21 72.06 70.98 70.05 68.99 68.31 67.56 67.13 68.70 69.61 70.18 71.12 70.11 68.91 71.70 69.73 72.91 73.15 73.00 72.68 72.84 72.96
73.55 74.31 76.43 77.74 77.29 77.52 77.24 76.75 76.23 76.45 76.50 76.33 76.40 76.70 76.82 76.39 76.12 75.80 75.71 75.39 74.64 72.66 71.47 70.35 69.75 69.78 69.05 67.62 68.86 68.84 68.57 69.13 70.54 68.75 65.30 65.81 66.67 72.82 73.31 73.31 72.50 72.26 72.86
72.64 74.27 76.95 77.42 77.14 77.12 77.01 76.75 76.40 76.40 76.48 76.43 76.43 76.69 76.66 76.41 75.88 75.64 75.43 75.14 74.50 72.73 71.11 70.65 71.07 70.49 69.71 68.91 69.61 69.06 69.26 70.23 71.30 67.92 67.36 69.26 67.17 73.69 73.94 73.87 73.44 72.95 72.97
71.55 74.96 76.40 77.26 77.33 76.99 77.09 76.96 76.67 76.37 76.32 76.42 76.45 76.72 76.64 76.17 75.55 75.39 75.22 74.91 74.43 73.33 72.44 71.63 71.34 70.73 70.39 70.19 69.75 69.77 70.32 70.87 69.09 68.78 68.75 67.95 68.59 72.53 73.88 73.22 73.02 73.02 72.72
71.48 74.36 75.56 77.24 77.11 76.87 76.93 76.80 76.52 76.33 76.26 76.39 76.23 76.53 76.48 75.95 75.52 75.34 75.02 74.71 74.14 73.20 72.84 72.30 71.64 71.30 70.71 70.61 70.50 70.18 70.73 70.25 68.68 67.52 67.29 69.00 70.28 72.85 73.81 73.25 72.76 72.96 72.70
73.49 73.69 74.39 75.85 76.82 77.00 76.53 76.22 76.27 76.01 76.09 75.91 75.80 75.87 75.93 75.61 75.30 74.86 74.60 74.23 73.47 73.14 72.52 72.25 71.83 71.44 71.19 71.07 70.94 70.90 71.09 70.69 67.35 67.27 67.20 67.61 72.58 73.68 74.21 73.68 73.44 73.07 72.84
73.08 73.28 73.16 74.95 75.62 75.57 75.80 76.32 76.19 76.04 76.00 75.67 75.82 75.67 75.30 75.29 74.88 74.44 73.39 73.31 73.24 73.02 72.65 72.25 71.88 71.69 71.51 71.19 71.07 70.97 71.37 70.81 67.46 66.57 65.12 66.56 72.20 73.89 74.92 74.41 73.86 73.59 73.14
73.02 72.11 72.47 73.74 74.35 74.69 74.58 76.00 75.83 76.45 75.83 75.55 75.60 75.30 74.27 72.23 72.39 72.81 72.41 72.79 72.94 73.04 72.87 72.45 72.15 72.03 71.68 71.78 71.46 71.54 70.80 66.78 66.34 65.04 64.39 69.33 72.77 74.08 74.05 73.86 74.24 73.84 73.62
69.13 70.78 71.52 72.35 72.79 72.95 75.03 74.55 74.10 74.92 74.38 73.99 73.80 73.42 72.10 70.95 70.35 71.51 71.55 72.80 72.57 72.87 72.99 72.69 72.39 72.17 71.83 67.78 66.40 70.51 67.61 66.60 65.79 64.75 64.13 71.10 73.52 74.62 74.87 74.41 73.77 74.11 74.01
66.07 68.04 69.96 71.36 71.61 70.89 73.11 73.49 73.19 73.25 73.05 72.85 72.78 72.26 71.07 70.39 69.75 69.36 67.56 68.70 68.77 71.81 69.42 70.73 70.00 69.44 68.10 66.65 64.93 63.20 66.58 66.21 64.84 64.75 66.50 73.14 73.32 74.52 74.48 74.01 73.94 73.99 74.25
65.88 67.03 69.60 70.78 70.87 70.05 72.48 71.98 71.43 71.63 71.79 71.85 71.79 71.90 70.69 68.45 66.95 67.79 66.97 66.57 67.30 67.29 66.91 65.13 66.44 66.72 66.65 65.43 64.91 64.02 65.05 65.07 65.22 65.65 65.44 73.34 72.60 73.39 73.78 73.40 73.21 73.47 73.81
63.75 66.91 69.76 70.83 70.14 70.03 71.61 70.85 70.41 70.44 70.18 70.55 70.45 71.24 70.52 68.74 68.01 68.02 66.90 66.65 66.77 66.98 66.90 65.62 65.18 65.69 65.84 65.88 65.50 65.09 65.04 64.88 64.90 64.80 65.95 73.27 71.91 72.70 73.58 73.95 73.58 73.54 73.42
63.32 66.06 70.25 70.86 70.65 70.06 71.03 70.71 68.94 69.07 70.18 69.84 70.33 70.60 70.63 68.99 67.95 68.96 68.61 69.23 68.64 68.34 67.90 66.85 65.75 65.37 66.47 66.52 66.29 66.56 66.57 65.97 65.93 65.56 65.96 68.63 72.28 71.77 72.60 73.76 74.14 73.86 73.48
62.68 65.43 68.84 71.03 72.37 70.97 71.89 72.73 72.30 69.35 69.97 70.05 70.23 70.33 70.80 70.64 67.60 67.91 69.72 68.66 69.02 69.11 68.79 67.34 66.68 67.45 67.05 67.22 65.75 65.77 66.23 66.52 66.14 65.79 65.61 65.85 68.80 71.50 71.67 72.42 73.32 73.89 74.09
62.84 63.63 64.98 70.95 71.83 70.87 71.83 72.07 72.16 72.14 71.44 69.87 69.97 70.84 71.19 70.47 71.17 69.59 70.06 69.34 68.78 68.82 68.53 68.14 67.02 66.04 65.92 65.11 64.10 64.50 64.74 65.67 66.24 66.22 66.12 66.29 65.97 67.26 70.69 71.67 72.22 72.95 73.89
62.56 63.45 65.06 68.67 70.79 71.63 71.54 72.60 72.02 71.68 71.78 71.47 70.89 71.94 71.43 70.95 71.80 71.42 70.60 69.36 69.67 68.84 68.65 67.59 67.31 66.59 65.43 65.20 64.97 64.93 66.37 66.63 66.56 67.57 67.06 66.92 66.22 66.84 66.68 69.81 71.11 71.30 72.17
60.22 60.61 62.48 68.06 69.35 70.99 71.36 71.43 71.96 71.01 71.24 70.83 69.82 70.16 72.05 72.35 71.91 71.06 70.59 69.68 69.30 69.05 67.17 66.12 66.30 67.52 65.54 65.04 66.89 67.22 65.50 67.24 67.53 67.51 67.74 67.99 67.43 67.29 67.11 67.21 68.71 69.35 70.83
59.65 59.61 60.20 65.21 67.80 69.87 69.76 69.05 68.57 69.17 69.21 69.28 69.59 69.34 69.45 71.16 72.27 71.35 69.99 70.02 70.18 68.38 66.47 66.40 65.67 65.82 64.47 65.91 64.52 64.93 66.80 68.22 68.57 68.79 68.74 68.00 68.61 68.46 68.17 68.89 68.61 67.78 68.53
56.72 60.21 60.12 60.77 65.49 68.07 68.57 68.68 67.98 68.23 68.95 68.87 68.54 68.60 68.65 68.57 69.77 71.27 71.21 70.16 69.39 67.10 66.13 66.42 65.72 64.66 65.62 66.40 65.60 64.63 63.28 63.93 66.38 68.38 67.60 68.70 68.44 68.89 68.65 68.74 69.60 67.76 68.02
58.06 59.17 60.18 61.45 62.74 65.45 68.59 67.76 67.30 68.66 69.27 68.26 67.43 67.72 68.45 69.00 68.99 69.96 70.25 69.49 68.77 67.02 66.19 65.26 65.79 66.49 65.58 66.24 67.37 65.71 62.02 60.07 63.07 66.16 67.27 67.43 67.78 68.21 68.74 68.35 68.05 68.26 68.76
54.83 57.48 57.82 59.05 59.72 61.10 63.18 67.97 66.35 64.45 66.39 67.92 67.41 66.73 67.18 67.84 68.06 68.72 70.15 70.21 68.08 67.11 66.37 65.79 67.95 68.02 67.54 66.78 66.91 69.69 68.73 66.45 61.87 60.73 66.00 67.50 67.95 68.38 68.05 68.22 68.04 68.99 68.65
56.34 54.86 55.05 55.98 58.04 59.16 59.99 62.15 66.22 66.80 67.03 67.03 67.05 68.26 67.66 66.85 69.52 69.25 69.23 68.97 68.08 66.92 67.13 67.69 66.83 67.33 69.07 68.63 67.92 67.05 67.37 67.90 66.58 63.78 61.20 62.89 66.11 67.20 67.73 68.22 68.00 67.94 68.25
54.26 55.36 54.69 55.36 56.48 57.36 59.50 60.83 61.52 61.78 63.23 64.83 65.20 63.89 65.10 66.66 65.61 66.45 70.32 69.35 68.79 68.10 67.62 68.52 68.65 68.64 67.04 65.34 65.54 63.22 61.56 63.14 65.21 64.63 63.18 62.60 62.27 64.07 66.24 68.24 67.28 67.34 67.79

GFSSE_sfc_wetblb_069.txt.gz
Wetbulb
73.38 75.67 77.63 77.55 77.28 77.00 77.05 76.93 76.87 76.95 76.82 76.80 76.85 76.75 76.58 76.43 76.52 76.75 76.77 76.84 76.59 76.23 75.54 74.45 73.63 72.87 72.49 72.49 73.22 73.57 73.51 73.85 74.02 73.85 73.44 73.32 74.00 74.23 74.54 73.81 72.87 71.77 72.33
74.31 75.85 77.62 77.42 77.33 76.93 76.98 76.83 76.57 76.49 76.61 76.67 76.70 76.40 76.40 76.54 76.67 76.64 76.74 76.61 76.22 75.24 74.01 72.89 72.16 71.62 71.73 71.89 72.58 73.09 73.77 74.00 74.72 73.71 73.27 73.05 73.42 74.03 73.81 73.02 72.57 71.30 71.86
74.53 75.75 76.43 77.21 77.22 76.95 76.60 76.40 76.04 76.07 76.19 76.19 76.24 76.22 76.32 76.29 76.41 76.38 76.13 75.96 75.25 74.02 72.89 71.91 71.08 70.45 70.18 70.37 70.97 71.88 72.66 73.40 73.82 73.77 72.49 69.91 70.18 73.19 73.30 72.54 71.99 71.88 71.79
74.70 75.69 75.66 77.19 77.09 77.05 76.44 76.01 75.81 75.79 75.97 75.82 75.84 76.07 76.04 76.04 76.04 75.96 75.56 75.15 74.06 73.18 71.96 71.08 70.23 69.27 68.80 68.56 68.82 69.50 69.97 70.13 70.37 70.31 67.49 69.43 69.71 72.57 72.90 72.90 72.55 72.31 72.12
74.45 75.17 75.75 76.99 76.81 76.92 76.44 75.93 75.63 75.53 75.69 75.89 75.94 75.89 75.79 75.71 75.36 75.28 75.09 74.65 73.24 72.27 71.35 70.53 69.58 69.37 68.80 68.20 68.07 67.75 68.07 69.02 69.26 66.76 64.64 64.39 64.37 70.79 72.56 72.76 72.64 72.38 72.51
74.32 75.32 76.63 76.88 76.73 76.54 76.39 76.16 75.58 75.58 75.79 75.88 75.99 75.76 75.71 75.28 75.10 74.97 74.81 74.45 73.58 72.03 71.08 70.15 69.90 69.72 69.23 68.37 68.23 68.26 68.82 69.95 69.38 66.89 67.08 67.27 65.49 72.92 72.62 72.73 72.24 72.26 72.36
73.87 74.81 75.92 76.65 76.73 76.36 76.27 75.99 75.69 75.63 75.42 75.75 75.73 75.78 75.33 74.97 74.94 74.87 74.61 73.80 73.31 71.98 70.82 69.93 70.05 70.09 69.47 68.67 68.46 68.93 69.44 68.26 65.96 65.90 65.44 65.28 65.85 71.99 73.56 73.24 73.15 72.48 72.39
73.21 74.81 75.65 76.58 76.52 76.10 76.01 75.76 75.40 75.25 75.47 75.64 75.66 75.47 75.39 74.91 74.81 74.70 74.56 73.92 73.38 72.52 71.67 70.78 70.67 69.96 69.52 69.25 69.62 69.18 69.51 68.79 66.28 65.03 65.16 63.92 68.20 71.50 72.95 74.35 73.45 72.63 72.14
73.14 74.31 74.77 75.35 75.94 76.23 75.69 75.42 75.41 75.14 75.15 75.26 75.23 75.16 75.14 74.88 74.88 74.68 74.34 74.11 73.33 72.61 72.21 71.57 70.87 70.48 70.11 70.14 70.03 69.69 70.16 69.53 65.87 65.30 65.92 64.26 68.52 71.70 72.59 74.35 73.30 72.95 72.23
72.34 73.85 74.03 74.54 74.99 74.49 74.61 75.58 75.33 75.14 74.90 74.95 75.07 75.15 74.63 74.75 74.67 74.13 73.17 73.28 73.10 72.39 72.24 71.57 71.10 70.59 70.34 70.22 69.95 70.05 69.74 69.44 64.93 64.27 64.02 63.02 68.85 70.31 72.63 74.47 73.60 73.38 73.08
71.05 72.19 73.31 73.48 74.02 73.89 74.10 74.79 75.13 75.60 75.11 74.90 74.81 74.93 73.61 72.53 72.56 72.80 72.33 73.05 72.90 72.39 72.09 71.94 71.57 70.98 70.61 70.42 70.61 70.46 69.97 65.12 64.67 64.14 63.73 66.52 68.50 69.60 73.13 74.55 74.10 73.78 73.23
69.34 71.14 72.60 72.98 72.61 73.25 74.10 73.80 73.51 73.63 73.69 73.32 73.11 73.21 72.40 71.13 70.71 71.62 71.75 72.91 73.00 72.66 72.34 72.06 71.77 71.47 70.81 66.41 65.18 67.52 64.83 64.45 64.36 64.44 64.35 68.01 69.57 70.40 72.33 74.52 74.65 74.08 73.63
69.82 71.10 72.13 72.26 72.63 72.10 72.75 73.50 73.20 73.37 73.08 73.25 72.65 72.47 70.71 70.97 71.04 70.86 68.65 69.73 68.56 71.15 67.86 69.81 68.70 68.22 66.76 66.00 65.67 64.50 63.40 62.81 63.22 64.21 65.40 69.39 70.10 70.33 72.25 74.39 74.47 74.35 73.72
69.32 70.02 71.92 72.00 71.82 71.99 72.20 72.86 72.93 73.05 72.65 72.29 72.45 71.54 70.23 69.33 68.88 68.31 67.77 66.56 66.11 66.06 65.84 65.17 65.77 65.72 65.72 66.21 65.43 64.44 63.64 62.44 62.51 63.45 64.00 69.09 70.54 71.17 72.46 74.89 74.90 74.43 73.75
68.30 69.38 71.22 71.96 71.60 72.13 71.90 72.03 71.98 71.84 71.91 72.05 72.20 71.29 70.64 69.01 67.61 67.12 66.17 65.12 64.74 64.33 64.72 64.41 63.96 64.12 64.23 64.66 64.92 64.37 63.61 62.93 62.83 63.29 63.30 68.31 70.34 71.33 73.55 75.22 74.90 74.60 74.15
65.98 68.44 70.05 71.23 71.94 72.03 71.82 71.68 71.69 72.08 72.03 71.54 71.46 71.40 70.23 68.94 66.78 65.97 65.52 64.58 64.40 64.54 64.25 64.19 63.88 63.27 63.31 63.71 63.81 63.98 63.76 63.32 63.19 63.20 63.68 64.08 69.00 70.32 73.20 74.17 74.58 74.65 74.17
63.93 67.46 68.74 69.65 70.73 70.75 71.42 71.25 71.29 71.69 71.68 71.10 71.17 71.38 70.91 68.70 66.85 65.27 65.62 64.91 64.74 64.54 64.80 64.80 64.48 64.26 63.42 63.51 63.47 63.86 64.13 64.57 64.67 64.76 64.87 64.66 64.85 69.63 71.98 72.41 73.35 73.63 74.30
61.52 64.83 67.53 70.00 69.31 69.11 70.80 70.37 70.43 70.89 70.64 70.75 70.94 70.67 70.89 69.72 67.66 66.51 65.55 65.66 66.56 65.98 65.82 65.64 65.51 64.87 64.59 64.54 64.30 64.10 63.75 63.66 63.90 64.17 64.75 65.29 64.29 64.90 69.90 72.33 72.50 73.10 73.10
60.83 65.10 66.41 68.31 68.14 68.00 69.08 69.43 68.70 68.78 69.15 68.58 69.01 69.54 70.35 70.28 68.57 66.64 66.71 67.07 66.77 66.16 66.88 66.83 66.38 65.36 64.45 63.95 63.77 64.44 63.92 63.88 64.55 65.92 65.08 64.76 64.88 64.67 64.47 68.77 71.54 71.98 72.46
59.85 63.75 66.69 67.93 67.71 68.24 68.88 68.80 68.41 67.39 68.09 68.63 68.12 68.10 68.78 69.89 69.86 67.49 66.14 65.56 67.66 67.14 66.34 66.16 65.58 64.98 65.18 64.72 65.10 65.69 64.75 64.30 64.51 64.81 64.97 65.99 65.70 65.60 64.74 65.45 65.96 68.12 71.16
59.51 62.10 66.20 66.97 67.88 68.10 68.13 67.79 66.99 67.46 67.12 67.28 68.75 68.90 68.97 69.20 69.38 69.27 68.58 67.97 67.03 66.50 66.78 66.62 65.16 64.70 64.19 64.87 63.22 62.36 62.67 64.37 64.34 64.65 65.10 65.65 66.17 66.77 66.27 66.36 65.60 66.07 66.81
58.56 60.85 62.86 64.56 67.53 68.59 68.32 67.19 67.06 66.76 66.74 66.60 67.23 68.49 69.87 69.75 69.25 68.89 69.26 69.31 69.03 67.92 67.01 66.38 65.03 63.76 64.05 64.43 61.43 61.13 59.31 62.42 62.78 64.12 65.65 65.95 66.40 67.57 67.48 67.92 67.10 66.60 66.25
54.81 57.02 60.02 63.13 65.00 66.51 67.50 66.71 66.17 66.42 65.83 66.02 65.63 66.49 67.84 70.24 69.75 69.59 69.05 69.09 69.02 69.10 68.02 66.93 65.78 64.12 63.55 64.23 64.06 60.34 58.46 58.14 61.24 63.27 63.67 66.11 64.49 65.32 66.02 67.53 67.70 67.81 67.44
54.91 55.52 57.22 58.98 62.47 64.08 66.02 64.89 63.56 63.17 64.45 65.25 65.10 65.23 66.47 67.37 67.10 69.65 69.93 69.08 68.89 68.92 67.84 66.93 66.78 65.10 64.26 63.13 64.41 65.60 64.25 63.25 61.19 58.41 62.55 62.78 62.69 62.95 64.29 66.82 67.64 68.10 67.77
53.77 56.02 57.26 58.12 57.74 58.23 59.41 62.26 63.38 62.68 62.91 63.31 64.17 65.00 64.50 65.55 66.79 67.61 67.71 68.45 69.41 69.24 68.63 68.39 66.60 65.29 65.07 64.56 64.82 64.58 64.80 64.69 61.50 58.16 57.08 57.79 60.84 62.23 63.97 66.18 67.66 67.21 66.83
52.77 53.99 54.95 55.07 54.64 55.12 57.50 58.64 59.58 60.17 60.99 61.82 62.87 63.42 63.46 64.68 65.25 65.73 67.14 66.85 67.77 67.74 67.62 67.80 67.47 66.01 66.45 65.96 65.95 65.88 65.19 61.69 60.06 58.77 55.26 56.33 58.19 60.93 64.16 65.65 66.47 67.10 66.19

GFSSE_sfc_wetblb_072.txt.gz
Wetbulb
71.55 75.30 77.26 77.18 77.33 77.03 77.36 77.41 77.48 77.33 77.28 77.13 76.98 76.91 76.58 76.35 76.65 76.92 76.75 76.67 76.50 76.13 75.43 74.74 73.78 73.20 72.94 73.14 73.57 73.71 74.14 74.31 73.68 73.46 73.47 73.90 73.93 74.12 74.24 72.83 72.47 71.54 71.84
73.08 75.65 76.35 77.08 77.10 77.11 77.06 77.21 76.98 76.92 76.90 77.03 76.98 76.85 76.50 76.52 76.57 76.64 76.57 76.59 76.17 75.42 74.49 73.28 72.70 72.37 72.33 72.63 73.10 73.74 74.17 74.50 74.52 73.59 73.24 73.33 74.18 74.19 73.48 72.58 72.15 71.49 71.48
73.58 75.64 76.19 77.02 76.95 77.00 76.65 76.57 76.57 76.57 76.57 76.60 76.42 76.32 76.37 76.35 76.54 76.46 76.36 76.26 75.58 74.44 73.01 72.31 71.64 71.56 71.69 72.10 73.03 73.51 73.92 74.10 74.45 72.96 72.19 70.95 71.92 73.50 72.74 72.29 72.16 71.98 71.07
74.51 75.53 75.54 76.87 76.70 76.78 76.50 76.21 76.13 76.21 76.34 76.19 76.14 76.32 76.22 76.31 76.46 76.23 76.09 75.52 74.39 73.28 72.17 71.43 70.75 70.29 70.45 70.75 71.29 71.96 72.36 72.26 72.40 72.57 70.48 70.85 70.44 72.68 72.87 72.27 72.27 72.16 71.35
74.12 75.00 75.55 76.97 76.59 76.60 76.29 76.01 75.98 75.93 75.96 76.04 76.09 76.19 76.19 76.08 75.98 75.60 75.44 74.90 73.72 72.57 71.65 70.81 70.15 70.53 70.45 69.80 70.21 69.96 69.96 70.42 69.99 67.14 67.04 66.91 67.69 71.51 72.87 72.56 72.45 72.48 72.04
73.57 74.82 76.07 76.58 76.46 76.39 76.29 75.83 75.76 75.71 75.86 75.89 76.04 75.89 75.83 75.68 75.20 75.05 74.94 74.37 73.68 72.27 71.38 70.78 70.60 70.49 69.87 69.36 69.27 69.26 69.90 70.65 69.40 68.21 68.38 67.76 67.14 69.66 72.56 72.33 72.27 72.26 72.21
72.92 74.43 76.01 76.55 76.28 76.16 76.17 75.91 75.63 75.68 75.38 75.53 75.56 75.64 75.44 75.03 74.67 74.57 74.34 73.83 73.59 72.85 71.64 70.38 70.38 70.16 69.77 69.54 69.52 69.29 69.92 69.36 66.96 67.17 66.73 66.39 67.80 71.77 73.18 72.96 73.05 72.53 72.22
72.75 74.20 75.15 76.11 76.17 75.85 75.86 75.63 75.22 75.25 75.30 75.30 75.20 75.16 75.08 74.62 74.52 74.50 74.24 73.98 73.45 72.71 71.86 71.10 70.70 69.98 69.16 68.77 69.10 69.11 69.52 68.90 66.46 66.16 66.55 66.03 68.13 70.00 72.61 74.10 74.20 72.86 72.24
73.76 73.95 74.29 74.85 75.46 75.88 75.59 75.36 75.14 74.93 74.84 74.91 74.72 74.80 74.66 74.46 74.54 74.46 74.07 73.86 73.68 72.78 72.26 71.57 70.67 70.10 69.33 68.92 69.67 69.80 69.92 68.47 66.57 66.66 66.23 66.06 66.95 70.04 71.74 73.89 73.80 73.13 72.51
73.06 72.96 73.55 73.85 74.55 74.12 74.29 75.51 75.18 74.96 74.75 74.62 74.59 74.71 74.33 74.26 74.38 74.13 73.34 73.59 73.30 72.51 72.14 71.52 70.78 70.31 69.84 69.65 69.95 69.80 69.38 68.79 65.66 65.35 65.57 65.06 67.49 68.88 69.99 73.53 74.47 73.73 73.38
72.31 72.49 73.17 73.08 73.40 73.69 73.38 74.34 74.95 75.03 74.88 74.74 74.59 74.41 73.43 72.67 73.00 72.90 72.64 72.95 73.20 72.44 71.94 71.50 71.08 70.47 70.29 70.07 70.17 70.12 69.89 66.62 65.53 65.45 65.47 66.60 68.49 69.33 70.11 73.46 74.45 74.03 73.73
69.68 71.30 72.09 72.43 72.64 73.03 73.53 73.34 73.18 73.42 73.52 73.21 73.37 73.21 71.85 71.31 71.42 71.61 72.02 72.83 73.11 72.41 72.04 71.70 71.38 70.96 70.56 67.26 66.18 67.25 65.23 64.76 64.42 64.82 65.59 67.82 69.50 69.87 70.73 73.07 74.20 74.04 73.95
69.20 70.86 71.74 72.08 72.26 72.51 72.22 73.08 72.76 72.86 72.70 72.44 72.04 72.29 70.84 70.50 70.92 71.37 70.11 71.19 70.26 71.84 69.06 70.68 69.70 69.26 67.90 67.07 66.44 65.90 65.32 65.20 64.61 64.83 65.77 68.70 69.90 70.66 71.57 73.29 74.20 74.37 73.87
68.81 70.15 71.48 71.74 72.20 72.31 72.55 72.29 72.01 72.00 72.14 72.00 72.47 72.52 70.73 69.69 69.01 69.19 68.69 68.11 67.80 67.66 67.10 66.42 66.48 66.87 66.72 66.97 66.82 66.34 65.79 65.25 64.80 65.20 65.59 68.44 70.10 70.69 71.65 73.80 74.50 74.77 74.12
68.32 69.45 71.39 71.65 71.75 71.51 71.18 72.30 71.95 71.80 71.92 71.82 71.79 71.72 71.37 69.82 68.81 68.61 67.77 66.65 66.30 66.14 66.00 65.63 65.33 65.72 65.69 65.91 65.95 65.99 65.46 65.64 65.59 65.42 65.76 67.88 69.97 70.88 71.56 73.78 74.92 75.37 74.80
68.31 68.85 71.16 71.14 71.40 71.79 71.49 71.65 71.46 71.63 71.73 71.44 71.67 71.43 71.09 70.10 68.54 67.77 67.15 66.38 65.49 65.54 65.42 65.33 65.22 65.20 65.24 65.55 65.70 66.14 65.99 65.89 66.04 66.20 66.07 66.41 68.70 69.94 70.98 73.38 74.75 75.60 75.15
68.14 68.95 70.14 70.73 71.05 71.17 71.59 71.20 71.03 71.33 71.69 71.35 71.49 71.70 71.32 70.15 68.40 67.76 67.12 66.18 65.58 65.49 65.67 65.54 65.75 65.61 65.32 65.44 65.43 66.23 66.30 66.72 66.74 67.16 67.22 67.42 67.22 68.24 69.97 72.25 73.92 74.40 74.75
65.74 67.84 69.37 70.83 70.78 70.65 71.16 71.19 71.11 71.42 71.74 71.55 71.68 71.37 71.46 70.72 69.23 67.00 66.15 66.22 66.75 65.87 65.89 65.80 65.75 66.05 66.35 66.37 66.39 67.02 66.59 66.70 66.80 66.59 66.98 67.27 67.59 67.19 68.49 71.50 72.63 73.25 73.75
62.71 67.01 67.97 69.25 69.72 70.26 70.75 70.65 70.63 70.59 70.81 70.60 70.04 70.30 70.78 70.69 69.91 68.08 67.35 66.18 66.44 66.82 67.00 66.86 67.08 67.37 66.70 66.57 65.96 66.57 66.40 66.64 67.16 67.32 67.55 67.61 68.26 67.93 67.44 68.12 70.92 72.09 72.80
56.91 63.02 67.18 68.59 68.65 69.20 69.69 69.31 67.97 68.15 69.28 70.19 69.74 69.55 69.71 70.28 70.23 68.24 67.62 66.77 66.90 66.15 66.46 67.05 67.22 66.64 66.42 66.72 66.14 66.50 66.71 66.97 66.89 66.59 67.07 67.83 68.44 68.56 68.13 68.27 68.93 70.34 71.25
54.12 60.81 64.47 66.45 67.31 67.85 67.59 67.38 67.03 66.29 67.28 67.64 68.27 68.94 68.89 69.38 69.90 69.17 67.99 66.15 66.32 66.97 67.06 67.15 67.15 66.53 65.64 66.73 65.39 64.89 64.79 65.68 65.79 66.34 68.26 68.33 68.50 68.98 68.94 69.38 68.77 68.51 69.73
55.04 59.00 63.50 65.93 66.01 67.23 67.99 68.26 67.73 67.73 66.94 67.91 68.27 68.53 68.80 68.99 69.11 69.14 68.76 67.97 66.87 66.25 66.81 67.36 66.86 65.69 65.29 65.58 64.50 62.88 59.56 62.82 65.11 67.82 67.26 67.81 67.99 68.77 68.61 69.68 69.71 69.36 69.20
55.82 59.09 63.29 65.96 67.12 67.15 67.63 67.21 66.32 66.48 66.39 66.35 67.05 67.46 68.15 68.87 69.17 69.10 68.90 68.76 68.84 68.37 67.48 67.48 67.25 66.22 64.98 65.03 65.37 63.30 59.92 58.92 62.68 65.72 66.24 67.14 67.98 66.19 66.98 68.84 69.43 69.69 69.71
54.94 58.23 61.58 63.80 66.19 67.12 67.21 66.85 66.20 65.36 65.17 65.87 67.16 67.95 67.93 68.91 69.38 69.78 69.40 69.47 69.42 69.73 69.17 68.56 68.19 67.28 66.31 64.18 64.94 65.96 65.71 64.81 62.35 61.34 63.90 65.23 65.18 64.14 64.28 66.62 68.62 69.78 70.69
54.04 54.99 58.22 61.71 63.49 65.47 66.74 66.88 65.30 63.67 63.68 64.33 65.08 66.02 66.76 67.37 68.06 68.44 68.76 68.97 68.54 68.47 68.36 67.89 67.42 66.25 65.98 65.60 65.32 65.11 65.14 65.54 65.30 63.71 61.78 62.95 62.36 62.97 63.53 65.89 67.66 69.63 69.99
51.91 54.00 55.52 57.70 59.35 61.45 63.73 64.48 65.01 63.86 64.00 63.51 63.72 63.91 65.01 65.79 66.78 67.30 67.74 66.74 68.25 68.58 68.65 68.36 68.56 66.00 65.83 67.21 66.56 65.42 65.61 64.95 63.99 61.73 61.06 60.24 59.88 62.15 64.76 67.08 68.28 69.37 69.92

GFSSE_sfc_wetblb_075.txt.gz
Wetbulb
73.07 76.21 77.41 77.61 77.64 77.94 78.21 78.17 77.84 77.41 76.83 76.81 76.60 76.53 76.35 76.45 76.57 76.97 76.85 77.02 76.78 76.60 75.47 74.70 74.30 74.28 73.99 73.57 73.94 74.11 74.61 74.55 74.01 73.97 74.06 74.00 73.85 74.62 73.10 72.56 71.83 71.42 71.93
74.74 76.74 77.20 77.38 77.38 77.71 77.94 77.96 77.61 77.31 76.98 76.73 76.81 76.58 76.30 76.62 76.92 76.85 76.90 76.80 76.48 75.84 74.88 74.13 73.19 72.84 72.84 73.12 73.57 74.13 74.21 74.72 74.66 73.62 73.54 74.19 74.38 74.00 72.90 71.99 71.18 71.95 71.77
75.33 77.05 76.86 77.07 77.36 77.46 77.38 77.33 77.23 77.05 76.95 76.78 76.70 76.55 76.43 76.67 76.75 76.64 76.61 76.52 76.13 75.12 73.66 72.87 72.53 72.39 72.82 72.99 73.96 74.09 74.07 74.24 74.26 72.90 72.13 71.83 72.33 73.27 72.58 71.83 71.55 71.20 70.88
76.18 76.67 76.60 77.02 77.15 77.36 77.15 76.97 76.84 76.92 76.90 76.83 76.73 76.68 76.42 76.52 76.49 76.61 76.52 76.15 75.29 73.84 72.75 72.11 71.81 71.84 72.23 73.02 73.74 73.79 73.82 74.04 73.68 73.16 73.03 72.96 71.85 72.87 72.53 71.91 71.93 71.40 70.48
76.14 76.87 76.87 76.85 76.70 77.00 76.87 76.74 76.59 76.66 76.64 76.60 76.70 76.47 76.32 76.47 76.31 76.18 76.14 75.67 74.40 72.93 72.14 71.43 71.08 71.87 71.86 71.64 72.10 72.08 71.84 71.10 70.21 69.21 71.74 72.52 73.13 72.54 72.96 72.66 72.54 72.33 71.29
75.62 76.24 76.62 76.52 76.49 76.59 76.85 76.57 76.33 76.23 76.37 76.40 76.50 76.42 76.32 76.23 75.97 75.73 75.51 74.97 74.35 73.17 71.98 71.56 71.17 71.17 71.04 70.48 70.21 70.02 70.37 70.20 68.99 71.90 71.95 70.80 72.51 72.31 72.90 72.93 72.68 72.45 72.26
75.08 75.90 76.34 76.41 76.34 76.39 76.45 76.37 76.21 76.04 75.74 75.86 76.02 76.09 76.04 75.77 75.47 75.16 74.84 74.62 74.08 73.40 72.42 71.17 70.82 70.51 69.93 69.78 69.54 69.82 70.07 69.53 70.24 71.46 70.42 69.43 72.19 70.04 73.04 72.79 72.74 72.67 72.31
74.66 75.76 76.22 76.38 76.19 75.93 75.89 75.83 75.60 75.38 75.43 75.61 75.63 75.71 75.61 75.20 74.81 74.79 74.47 74.33 73.85 73.21 72.51 71.48 71.11 70.37 69.74 69.86 69.71 69.61 69.33 68.56 68.07 67.86 68.29 69.54 69.04 69.99 72.49 73.41 73.57 73.08 72.46
74.99 75.41 75.95 75.77 76.11 75.96 75.55 75.30 75.32 75.17 75.12 75.17 74.92 75.02 74.82 74.68 74.43 74.29 74.14 73.95 73.80 73.10 72.48 71.73 71.05 70.51 69.99 69.78 69.82 69.60 69.36 69.35 68.62 68.53 67.16 68.31 66.63 68.31 71.43 73.22 73.54 73.40 72.83
74.32 75.01 75.27 75.33 75.10 74.75 75.20 75.44 75.11 75.16 74.96 74.72 74.73 74.76 74.37 74.33 74.25 74.18 73.28 73.68 73.60 72.88 72.39 71.62 70.87 70.53 70.08 69.68 69.33 69.10 68.71 69.16 67.80 67.09 67.82 69.79 67.68 68.97 69.31 71.93 73.99 74.48 73.73
72.99 74.46 74.79 74.82 74.89 74.44 74.11 74.62 75.01 75.10 74.98 74.62 74.84 74.56 73.56 72.38 72.82 73.29 72.35 73.58 73.54 72.73 72.26 71.70 71.10 70.48 70.23 69.62 69.38 69.42 69.69 68.91 67.88 67.38 67.37 69.57 68.79 69.92 70.28 71.69 73.95 74.85 74.32
71.24 73.26 74.50 74.47 74.40 74.16 73.60 74.21 74.06 73.64 73.82 73.82 73.98 74.33 73.35 73.18 72.96 71.80 72.43 73.18 73.37 72.71 72.31 71.87 71.35 70.91 69.92 69.51 68.85 68.31 68.04 68.57 68.60 69.07 68.52 68.05 69.40 70.36 71.31 72.49 73.42 74.60 74.69
71.23 72.62 73.57 74.32 74.85 73.80 73.32 74.09 73.77 73.67 73.85 74.01 74.00 74.22 74.09 72.99 73.13 72.28 71.71 71.58 72.08 71.80 70.03 70.37 70.43 69.89 69.63 69.69 69.29 69.24 68.89 69.05 70.20 70.45 71.17 68.50 69.97 70.61 71.94 73.15 73.90 74.35 74.69
70.59 71.76 73.19 74.12 74.34 74.31 73.89 73.49 73.46 73.33 73.52 72.94 73.27 73.99 73.12 72.34 72.34 72.33 71.22 71.41 71.86 70.97 70.53 70.23 69.45 70.00 70.08 70.20 70.39 70.14 70.18 70.24 70.66 71.11 71.73 69.84 70.05 70.08 71.42 73.09 74.74 74.70 74.72
70.12 71.54 72.75 73.75 73.96 73.40 73.84 73.39 73.43 73.23 73.42 73.38 73.13 73.87 72.62 71.57 71.67 72.09 71.95 71.26 70.93 70.68 70.29 69.64 69.11 69.04 69.46 70.39 70.88 71.09 71.08 71.27 71.55 71.48 71.75 71.18 70.24 70.71 70.92 71.90 73.63 75.27 75.37
71.16 71.49 72.53 72.89 74.20 73.18 73.87 74.12 73.53 73.71 73.72 73.69 73.42 73.38 72.81 72.32 72.07 71.48 71.74 71.21 70.61 70.37 69.80 69.45 69.25 69.48 69.90 70.33 71.04 71.85 71.77 71.95 72.06 72.33 72.32 72.43 69.90 69.86 70.86 71.32 72.04 74.99 75.92
71.75 72.43 72.40 73.22 73.78 73.85 74.70 74.51 73.96 73.63 73.61 73.35 73.32 73.89 72.97 72.86 72.73 72.07 71.15 70.63 70.48 70.76 70.78 70.13 70.38 70.45 70.17 70.97 71.86 72.52 72.64 73.03 72.44 72.51 72.70 72.31 71.95 70.32 69.85 71.04 71.57 73.98 75.47
72.27 72.37 72.99 72.99 73.22 74.30 74.70 74.53 74.09 73.80 73.61 73.51 73.49 73.28 72.81 72.85 73.15 72.40 71.16 70.83 71.13 70.70 70.05 69.96 70.13 69.96 70.61 71.67 72.14 72.53 72.45 72.67 72.60 72.53 72.79 72.39 71.80 72.80 72.17 70.48 71.42 73.02 74.40
70.88 72.47 72.67 73.36 72.99 73.85 74.17 74.04 74.30 74.97 73.70 73.20 72.42 71.84 72.85 73.26 72.96 72.33 71.32 71.57 72.14 70.72 69.75 69.58 69.90 70.33 71.35 71.73 71.26 71.47 71.68 71.54 72.46 71.83 72.14 71.86 72.84 73.73 73.45 72.19 70.07 71.14 72.60
65.77 70.29 72.28 72.65 73.70 73.63 73.09 73.59 73.16 73.31 73.50 72.75 71.01 71.52 72.31 73.64 73.34 72.41 71.89 71.56 71.43 69.76 69.45 69.35 70.61 71.56 70.94 70.52 70.07 70.18 70.99 71.24 71.16 71.23 71.10 71.02 73.22 73.36 73.51 73.56 73.57 72.99 70.60
61.38 65.21 70.26 71.15 72.48 72.40 71.33 70.83 70.41 70.14 71.89 72.36 72.64 73.16 73.08 72.51 73.39 73.93 72.46 72.10 71.52 70.82 70.37 69.84 69.81 70.33 69.89 69.76 69.35 69.28 69.11 70.25 70.13 70.91 70.61 71.71 72.42 72.53 72.70 72.15 72.50 72.87 73.10
60.99 62.24 65.70 70.69 72.04 71.95 71.57 71.84 71.02 70.83 70.98 71.70 72.44 72.93 73.33 72.88 72.51 72.39 73.02 72.09 71.31 69.91 70.64 70.48 70.36 69.57 70.79 70.39 69.05 66.43 63.66 66.60 68.99 70.78 70.64 70.93 71.48 71.91 70.64 70.30 71.07 72.10 74.09
59.84 61.92 63.57 68.40 71.57 72.19 72.54 72.16 71.50 71.50 71.02 69.95 70.40 70.84 71.47 71.94 72.32 72.90 72.13 72.15 71.63 70.64 69.25 70.25 70.51 70.74 68.69 68.78 70.21 68.13 63.89 62.14 65.46 69.59 70.09 70.18 70.63 70.59 70.47 70.03 70.58 70.98 71.35
60.75 62.44 62.63 66.14 70.40 70.90 71.86 71.04 71.00 69.39 68.53 69.59 70.16 70.68 71.05 71.59 71.58 71.77 71.84 71.61 72.34 71.25 71.15 70.46 70.89 71.33 70.11 69.45 67.84 68.39 69.61 68.84 64.77 62.81 68.00 68.66 70.53 69.47 70.44 69.56 69.71 67.59 70.61
58.40 61.80 63.74 65.81 68.68 70.82 71.27 71.99 70.51 70.91 70.81 71.27 71.19 71.70 72.04 71.84 72.02 71.54 72.08 72.02 72.28 72.46 73.10 71.89 71.18 70.47 69.49 67.70 67.41 67.13 68.62 68.09 68.85 65.07 62.50 66.09 67.70 69.34 69.50 68.23 68.53 69.68 71.62
56.91 59.66 62.98 65.49 68.41 70.56 70.91 71.65 71.91 71.14 70.91 70.19 70.90 70.75 71.25 71.61 71.71 72.25 72.49 72.93 72.60 72.38 72.11 70.60 68.13 65.03 65.68 64.76 64.88 65.84 66.35 66.40 66.33 66.03 64.42 64.98 65.06 67.06 68.25 68.12 68.14 69.88 72.09